Andrews AFB, MD

3:26 AM EST on February 26, 2017 (GMT -0500)
Andrews Air Force Base-Naf

Weather History for KADW - March, 2013

Change the Weather History Date:

Saturday, March 30, 2013

  Actual Average Record
Temperature  
Mean Temperature 45 °F -  
Max Temperature 58 °F 58 °F 89 °F (1998)
Min Temperature 32 °F 38 °F 30 °F (2016)
Degree Days  
Heating Degree Days 20    
Moisture  
Dew Point 26 °F    
Average Humidity 50    
Maximum Humidity 82    
Minimum Humidity 23    
Precipitation  
Precipitation 0.00 in - - ()
Sea Level Pressure  
Sea Level Pressure 30.18 in    
Wind  
Wind Speed 2 mph (West)    
Max Wind Speed 9 mph    
Max Gust Speed -    
Visibility 10 miles    
Events      
Averages and records for this station are not official NWS values.
T = Trace of Precipitation, MM = Missing Value Source: NWS Daily Summary

Daily Weather History Graph

Daily Weather History Graph

Search for Another Location

Airport or City:

Trip Planner

Search our weather history database for the weather conditions in past years. The results will help you decide how hot, cold, wet, or windy it might be!

Date:

Astronomy

Mar. 30, 2013 Rise Set
Actual Time 6:54 AM EDT 7:29 PM EDT
Civil Twilight 6:28 AM EDT 7:56 PM EDT
Nautical Twilight 5:56 AM EDT 8:27 PM EDT
Astronomical Twilight 5:24 AM EDT 9:00 PM EDT
Moon 11:31 PM EDT (3/30) 8:50 AM EDT (3/30)
Length of Visible Light 13h 27m
Length of Day
12h 34m
Waning Gibbous, 86% of the Moon is Illuminated
Mar 30
Waning Gibbous
Apr 3
Last Quarter
Apr 10
New
Apr 18
First Quarter
Apr 25
Full

Hourly Weather History & Observations

Time (EDT) Temp. Windchill Dew Point Humidity Pressure Visibility Wind Dir Wind Speed Gust Speed Precip Events Conditions
12:55 AM 36.5 °F - 29.8 °F 77% 30.20 in 10.0 mi Calm Calm - N/A   Partly Cloudy
1:55 AM 36.1 °F - 28.9 °F 75% 30.20 in 10.0 mi Calm Calm - N/A   Partly Cloudy
2:55 AM 34.3 °F - 28.0 °F 78% 30.19 in 10.0 mi Calm Calm - N/A   Partly Cloudy
3:55 AM 32.0 °F - 27.0 °F 82% 30.19 in 10.0 mi Calm Calm - N/A   Clear
4:55 AM 34.3 °F - 27.7 °F 77% 30.19 in 10.0 mi Calm Calm - N/A   Overcast
5:55 AM 35.2 °F - 28.2 °F 76% 30.20 in 10.0 mi Calm Calm - N/A   Overcast
6:55 AM 39.4 °F - 28.4 °F 65% 30.21 in 10.0 mi Calm Calm - N/A   Overcast
7:55 AM 37.6 °F - 31.5 °F 79% 30.22 in 10.0 mi Calm Calm - N/A   Overcast
8:55 AM 45.5 °F - 31.6 °F 58% 30.24 in 10.0 mi Calm Calm - N/A   Partly Cloudy
9:55 AM 50.5 °F - 28.8 °F 43% 30.23 in 10.0 mi Calm Calm - N/A   Partly Cloudy
10:55 AM 53.2 °F - 27.5 °F 37% 30.23 in 10.0 mi WNW 3.5 mph - N/A   Clear
11:55 AM 55.8 °F - 25.2 °F 31% 30.21 in 10.0 mi WNW 9.2 mph - N/A   Mostly Cloudy
12:55 PM 54.9 °F - 23.4 °F 30% 30.19 in 10.0 mi WNW 6.9 mph - N/A   Clear
1:55 PM 56.5 °F - 21.4 °F 26% 30.17 in 10.0 mi West 6.9 mph - N/A   Clear
2:55 PM 57.2 °F - 23.2 °F 27% 30.15 in 10.0 mi North 4.6 mph - N/A   Clear
3:55 PM 57.2 °F - 22.6 °F 26% 30.14 in 10.0 mi Calm Calm - N/A   Clear
4:55 PM 58.6 °F - 21.0 °F 23% 30.13 in 10.0 mi West 8.1 mph - N/A   Clear
5:55 PM 57.7 °F - 19.9 °F 23% 30.13 in 10.0 mi NW 3.5 mph - N/A   Clear
6:55 PM 56.7 °F - 18.7 °F 23% 30.12 in 10.0 mi Calm Calm - N/A   Clear
7:55 PM 49.3 °F - 23.4 °F 36% 30.12 in 10.0 mi Calm Calm - N/A   Clear
8:55 PM 45.5 °F 43.2 °F 23.9 °F 43% 30.14 in 10.0 mi ESE 4.6 mph - N/A   Clear
9:55 PM 44.8 °F 40.4 °F 26.1 °F 48% 30.15 in 10.0 mi SE 8.1 mph - N/A   Clear
10:55 PM 43.7 °F 39.1 °F 27.0 °F 52% 30.15 in 10.0 mi SSE 8.1 mph - N/A   Clear
11:55 PM 42.8 °F 38.0 °F 27.0 °F 54% 30.14 in 10.0 mi SSE 8.1 mph - N/A   Clear